Regional Weather Roundup
Issued by NWS

Home | Current Version | Previous Version | Graphics & Text | Print | Product List | Glossary On
Versions: 1 2 3 4 5 6 7 8 9 10 11 12 13 14 15 16 17 18 19 20 21 22 23 24 25 26 27 28 29 30 31 32 33 34 35 36 37 38 39 40 41 42 43 44 45 46 47 48 49 50
000
ASUS43 KOAX 250110
RWRNE

WEATHER ROUNDUP FOR NEBRASKA
NATIONAL WEATHER SERVICE OMAHA NE
800 PM CDT THU JUL 24 2014

NOTES: SATELLITE DATA IS BEING USED TO AUGMENT CLOUD COVER ABOVE
       12000 FEET.
       "FAIR" INDICATES FEW OR NO CLOUDS BELOW 12,000 FEET WITH NO
       SIGNIFICANT WEATHER AND/OR OBSTRUCTIONS TO VISIBILITY.

  * THESE STATIONS DO NOT REPORT WEATHER SUCH AS RAIN...SNOW OR FOG.

NEZ001>004-019>022-054>056-250200-
NEBRASKA PANHANDLE

CITY           SKY/WX    TMP DP  RH WIND       PRES   REMARKS
SCOTTSBLUFF    PTSUNNY   82  58  43 E10       29.88F
ALLIANCE       CLOUDY    80  61  52 SE8       29.89F
CHADRON        PTSUNNY   92  54  27 SE8       29.76F HX  90
KIMBALL        MOSUNNY   78  58  48 SE15      29.97F
SIDNEY         CLOUDY    84  52  33 SE6       29.96F
$$

NEZ057>060-069>072-079>082-250200-
SOUTHWEST NEBRASKA

CITY           SKY/WX    TMP DP  RH WIND       PRES   REMARKS
NORTH PLATTE   TSTM      90  57  32 W15G22    29.84R
IMPERIAL       CLOUDY    88  51  28 NW14      29.89R
LEXINGTON      MOSUNNY   89  72  57 S16G26    29.81S HX  95
MCCOOK         PTSUNNY   92  53  26 S12       29.82R
OGALLALA       LGT RAIN  84  52  32 W14G21    29.93R
$$

NEZ005>010-023>029-035>040-094-250200-
NORTH CENTRAL NEBRASKA

CITY           SKY/WX    TMP DP  RH WIND       PRES   REMARKS
VALENTINE      LGT RAIN  92  71  50 S16       29.75R HX  98
AINSWORTH      CLOUDY    87  69  54 S15       29.77R HX  91
BROKEN BOW     PTSUNNY   90  70  51 S17G25    29.80F HX  95
O`NEILL        PTCLDY    83  65  54 SE15G22   29.82S
ORD            MOCLDY    84  69  60 SE14      29.80S
THEDFORD       CLOUDY    91  71  50 S17G24    29.81R THUNDER HX  97
$$

NEZ041-046>049-061>064-073>077-083>087-250200-
SOUTH CENTRAL NEBRASKA

CITY           SKY/WX    TMP DP  RH WIND       PRES   REMARKS
GRAND ISLAND   PTCLDY    83  69  62 SE20G25   29.84F
AURORA         CLEAR     83  69  62 S14G20    29.85F
HASTINGS       CLEAR     88  64  44 S16G23    29.85F
HEBRON         CLEAR     83  64  51 SE16      29.89F
HOLDREGE       CLEAR     89  68  50 S20G28    29.84R HX  92
KEARNEY *      PTCLDY    88  70  55 SE15      29.83S HX  92
YORK           CLEAR     82  66  57 N14       29.87F
$$

NEZ011>018-030>034-042>045-250200-
NORTHEAST NEBRASKA

CITY           SKY/WX    TMP DP  RH WIND       PRES   REMARKS
NORFOLK        PTCLDY    81  63  54 SE22G33   29.86F
ALBION         CLEAR     82  65  56 SE13G21   29.86R
BLAIR          MOCLDY    76  60  57 SE17G23   29.96F
COLUMBUS *     PTCLDY    70  64  83 SE13      29.90R
FREMONT        MOCLDY    80  62  55 SE17G26   29.93F
TEKAMAH        PTCLDY    78  61  55 SE17G30   29.93F
WAYNE          CLEAR     77  64  64 SE17G23   29.89F
$$

NEZ050>053-065>068-078-088>093-250200-
SOUTHEAST NEBRASKA

CITY           SKY/WX    TMP DP  RH WIND       PRES   REMARKS
LINCOLN        PTCLDY    84  62  47 SE21G29   29.92R
OMAHA EPPLEY   MOCLDY    78  61  55 SE20      29.96F
BEATRICE       CLEAR     82  64  54 SE12G18   29.92S
FALLS CITY     PTCLDY    78  62  57 SE9       29.97S
NEBRASKA CITY  PTCLDY    77  60  55 SE10      29.98R
PLATTSMOUTH    MOCLDY    77  61  56 E10       29.99R
$$

NEZ044-045-051>053-067-250200-
OMAHA AREA

CITY           SKY/WX    TMP DP  RH WIND       PRES   REMARKS
OMAHA EPPLEY   MOCLDY    78  61  55 SE20      29.96F
BLAIR          MOCLDY    76  60  57 SE17G23   29.96F
FREMONT        MOCLDY    80  62  55 SE17G26   29.93F
MILLARD        MOCLDY    79  63  58 SE16      29.96S
OFFUTT AFB     MOCLDY    78  63  61 E15G21    29.98R
PLATTSMOUTH    MOCLDY    77  61  56 E10       29.99R
WAHOO          FAIR      80  62  55 E15G23    29.94R
$$



USA.gov is the U.S. government's official web portal to all federal, state and local government web resources and services.